Location: 81360 Arifat, France
(43.7204°N, 2.3408°E)
Time: 01:43:52
(UTC+02:00)

X-37B - Pass Details

Date: 30 September 2021
Orbit: 385 x 389 km, 45.0° (Epoch: 17 October)

Event Time Altitude Azimuth Distance (km) Brightness Sun altitude
Exits shadow 05:39:22 37° 72° (ENE) 625 2.1 -23.5°
Drops below altitude 10° 05:41:27 10° 86° (E) 1,412 4.4 -23.2°
Sets 05:43:32 0° 89° (E) 2,267 5.7 -22.8°
